Location: Asheville, NC
(35.6000°N, 82.5500°W)
Time: 22:23:48
(UTC-05:00)

Vanguard 2 Rocket - Visible Passes

Search period start: 17 February 2018 00:00
Search period end: 27 February 2018 00:00
Orbit: 555 x 3327 km, 32.9° (Epoch: 17 February)

Date Brightness Start Highest point End Pass type
(mag) Time Alt. Az. Time Alt. Az. Time Alt. Az.
17 Feb 10.5 01:05:39 26° E 01:05:39 26° E 01:11:55 10° E visible
17 Feb 9.4 03:11:26 80° SSE 03:11:26 80° SSE 03:29:54 10° ESE visible
17 Feb 9.6 05:17:14 31° W 05:28:55 62° SSW 05:45:04 10° SE visible
17 Feb 10.0 21:26:23 10° S 21:26:54 12° S 21:26:54 12° S visible
18 Feb 11.0 00:09:21 10° E 00:09:21 10° E 00:09:33 10° E visible
18 Feb 9.8 02:15:09 53° E 02:15:09 53° E 02:28:26 10° E visible
18 Feb 9.5 04:20:57 54° WSW 04:27:01 71° SSW 04:45:01 10° ESE visible
18 Feb 9.9 06:26:45 11° W 06:43:55 40° SW 06:57:42 10° SSE visible
18 Feb 9.7 20:29:44 10° SSE 20:31:07 13° SSE 20:31:07 13° SSE visible
19 Feb 10.4 01:18:55 30° E 01:18:55 30° E 01:26:27 10° E visible
19 Feb 9.3 03:24:43 78° SSW 03:24:47 78° SSW 03:44:17 10° ESE visible
19 Feb 9.7 05:30:31 26° W 05:42:47 52° SSW 05:58:42 10° SE visible
19 Feb 9.7 21:39:27 10° SSW 21:41:12 17° SSW 21:41:12 17° SSW visible
20 Feb 10.9 00:22:45 13° E 00:22:45 13° E 00:24:04 10° E visible
20 Feb 9.7 02:28:33 57° ESE 02:28:33 57° ESE 02:42:56 10° ESE visible
20 Feb 9.5 04:34:21 47° WSW 04:41:07 62° SSW 04:58:56 10° SE visible
20 Feb 10.1 06:41:35 10° W 06:57:19 30° SW 07:10:13 10° S visible
20 Feb 9.3 20:41:48 10° S 20:45:27 22° SSE 20:45:27 22° SSE visible
21 Feb 10.3 01:32:27 33° E 01:32:27 33° E 01:40:59 10° E visible
21 Feb 9.4 03:38:15 70° SSW 03:39:05 70° SSW 03:58:28 10° ESE visible
21 Feb 9.9 05:44:04 22° W 05:56:24 41° SW 06:11:48 10° SSE visible
21 Feb 9.4 19:45:35 10° SSE 19:49:43 15° SE 19:49:43 15° SE visible
21 Feb 9.5 21:53:06 10° SW 21:55:34 22° SSW 21:55:34 22° SSW visible
22 Feb 10.9 00:36:24 15° E 00:36:24 15° E 00:38:36 10° E visible
22 Feb 9.6 02:42:13 59° SE 02:42:13 59° SE 02:57:17 10° ESE visible
22 Feb 9.7 04:48:02 40° WSW 04:55:00 51° SSW 05:12:26 10° SE visible
22 Feb 8.9 20:54:55 10° SSW 20:59:49 32° S 20:59:49 32° S visible
22 Feb10.323:40:25E23:40:25E23:05:40WSWvisible
23 Feb 10.2 01:46:15 35° ESE 01:46:15 35° ESE 01:55:28 10° ESE visible
23 Feb 9.4 03:52:04 60° SW 03:53:13 61° SSW 04:12:17 10° SE visible
23 Feb 10.2 05:57:54 17° W 06:09:54 30° SW 06:24:08 10° S visible
23 Feb 9.0 19:57:28 10° S 20:03:31 24° SE 20:04:04 23° SE visible
23 Feb 9.4 22:07:10 10° SW 22:09:54 25° SW 22:09:54 25° SW visible
24 Feb 10.8 00:50:20 16° E 00:50:20 16° E 00:53:07 10° E visible
24 Feb 9.6 02:56:10 57° SSE 02:56:10 57° SSE 03:11:22 10° ESE visible
24 Feb 9.8 05:02:00 33° WSW 05:08:44 40° SW 05:25:22 10° SSE visible
24 Feb 9.3 19:01:56 10° SSE 19:04:39 12° SE 19:07:47 10° ESE visible
24 Feb 8.6 21:08:37 10° SW 21:14:08 42° S 21:14:08 42° S visible
24 Feb10.323:54:29E23:54:29E23:19:58WSWvisible
25 Feb 10.2 02:00:20 35° ESE 02:00:20 35° ESE 02:09:45 10° ESE visible
25 Feb 9.6 04:06:09 50° SW 04:07:11 50° SSW 04:25:38 10° SE visible
25 Feb 10.4 06:12:00 12° W 06:23:22 21° SW 06:35:14 10° S visible
25 Feb 8.5 20:10:36 10° SSW 20:17:06 34° SE 20:18:21 33° SE visible
25 Feb 9.4 22:21:29 10° WSW 22:24:11 25° WSW 22:24:11 25° WSW visible
26 Feb 10.8 01:04:32 17° ESE 01:04:32 17° ESE 01:07:34 10° ESE visible
26 Feb 9.7 03:10:23 50° SSE 03:10:23 50° SSE 03:25:05 10° SE visible
26 Feb 10.1 05:16:13 25° WSW 05:22:22 30° SW 05:37:29 10° S visible
26 Feb 8.8 19:13:20 10° S 19:18:06 20° SE 19:22:31 15° ESE visible
26 Feb 8.4 21:22:44 10° SW 21:28:21 50° SSW 21:28:21 50° SSW visible
